This demonstration page uses our WeatherBlox Daily Observations layout. Learn more.

Left ArrowRight Arrow

39.08367, -84.50855

Hourly Observations for November 7, 2022

Temp ( °F °C ) Dew Point ( °F °C ) Humidity (%) Winds ( mph kmh ) Pressure ( in mb ) Visibility ( mi km ) Precip ( " mm )
12:53 am 00:53 Clear 45 7.2 43 6.1 93 93 Calm 30.24 1024 10 16 0.00 0.00
1:53 am 01:53 Clear 44 6.7 43 6.1 96 96 Calm 30.25 1024 10 16 0.00 0.00
2:53 am 02:53 Clear 44 6.7 42 5.6 93 93 Calm 30.28 1025 10 16 0.00 0.00
3:53 am 03:53 Clear 42 5.6 41 5 96 96 Calm 30.29 1026 10 16 0.00 0.00
4:53 am 04:53 Clear 41 5 40 4.4 96 96 Calm 30.31 1026 8 13 0.00 0.00
5:53 am 05:53 Clear 40 4.4 40 4.4 100 100 ENE 3 6 30.33 1027 9 14 0.00 0.00
6:53 am 06:53 Clear 40 4.4 39 3.9 97 97 Calm 30.35 1028 10 16 0.00 0.00
7:53 am 07:53 Sunny 43 6.1 42 5.6 97 97 Calm 30.40 1029 10 16 0.00 0.00
8:53 am 08:53 Sunny 49 9.4 46 7.8 90 90 Calm 30.43 1030 10 16 0.00 0.00
9:53 am 09:53 Sunny 59 15 37 2.8 44 44 NE 10 17 30.44 1031 10 16 0.00 0.00
10:53 am 10:53 Sunny 62 16.7 34 1.1 35 35 NNE 7 11 30.45 1031 10 16 0.00 0.00
11:53 am 11:53 Sunny 64 17.8 33 0.6 31 31 N 8 13 30.45 1031 10 16 0.00 0.00
12:53 pm 12:53 Sunny 66 18.9 30 -1.1 26 26 N 12 19 30.43 1031 10 16 0.00 0.00
1:53 pm 13:53 Sunny 67 19.4 27 -2.8 22 22 N 7 11 30.42 1030 10 16 0.00 0.00
2:53 pm 14:53 Sunny 67 19.4 25 -3.9 20 20 VRB 6 9 30.42 1030 10 16 0.00 0.00
3:53 pm 15:53 Sunny 65 18.3 24 -4.4 21 21 NNE 6 9 30.43 1030 10 16 0.00 0.00
4:53 pm 16:53 Sunny 63 17.2 23 -5 21 21 NNE 5 7 30.43 1030 10 16 0.00 0.00
5:53 pm 17:53 Clear 57 13.9 28 -2.2 33 33 Calm 30.44 1031 10 16 0.00 0.00
6:53 pm 18:53 Clear 50 10 35 1.7 56 56 Calm 30.46 1032 10 16 0.00 0.00
7:53 pm 19:53 Clear 47 8.3 37 2.8 68 68 Calm 30.48 1032 10 16 0.00 0.00
8:53 pm 20:53 Clear 46 7.8 35 1.7 65 65 Calm 30.49 1033 10 16 0.00 0.00
9:53 pm 21:53 Clear 44 6.7 36 2.2 73 73 Calm 30.50 1033 10 16 0.00 0.00
10:53 pm 22:53 Clear 42 5.6 36 2.2 79 79 ENE 5 7 30.52 1033 10 16 0.00 0.00
11:53 pm 23:53 Clear 40 4.4 35 1.7 83 83 NNE 5 7 30.53 1034 10 16 0.00 0.00

Powered by AerisWeather